Weather History for St. James, MN

Change the Weather History Date:

Monday, February 18, 2013

  Actual Average Record
Temperature  
Mean Temperature 21 °F -  
Max Temperature 37 °F 30 °F 62 °F (1981)
Min Temperature 5 °F 14 °F -16 °F (1993)
Degree Days  
Heating Degree Days 44    
Moisture  
Dew Point 16 °F    
Average Humidity 69    
Maximum Humidity 75    
Minimum Humidity 58    
Precipitation  
Precipitation 0.00 in - - ()
Sea Level Pressure  
Sea Level Pressure 29.69 in    
Wind  
Wind Speed 17 mph (WNW)    
Max Wind Speed 34 mph    
Max Gust Speed 47 mph    
Visibility 8 miles    
Events Snow    
Averages and records for this station are not official NWS values.
T = Trace of Precipitation, MM = Missing Value Source: NWS Daily Summary

Daily Weather History Graph

Daily Weather History Graph

Search for Another Location

Airport:

Trip Planner

Search our weather history database for the weather conditions in past years. The results will help you decide how hot, cold, wet, or windy it might be!

Date:

Astronomy

Feb. 18, 2013 Rise Set
Actual Time 7:12 AM CST 5:52 PM CST
Civil Twilight 6:43 AM CST 6:21 PM CST
Nautical Twilight 6:09 AM CST 6:55 PM CST
Astronomical Twilight 5:36 AM CST 7:28 PM CST
Moon 11:32 AM CST (2/18) 1:58 AM CST (2/18)
Length of Visible Light 11h 38m
Length of Day
10h 40m
First Quarter, 58% of the Moon is Illuminated
Feb 18
First Quarter
Feb 25
Full
Mar 4
Last Quarter
Mar 11
New
Mar 19
First Quarter

Hourly Weather History & Observations

Time (CST) Temp. Windchill Dew Point Humidity Pressure Visibility Wind Dir Wind Speed Gust Speed Precip Events Conditions
12:15 AM 37.4 °F 29.3 °F 26.6 °F 65% 29.57 in 10.0 mi SSE 12.7 mph 16.1 mph N/A   Clear
12:35 AM 37.4 °F 28.9 °F 26.6 °F 65% 29.56 in 10.0 mi SSE 13.8 mph - N/A   Clear
12:55 AM 37.4 °F 29.8 °F 26.6 °F 65% 29.56 in 10.0 mi SSE 11.5 mph - N/A   Clear
1:14 AM 35.6 °F 28.6 °F 26.6 °F 70% 29.55 in 10.0 mi SSE 9.2 mph - N/A   Clear
1:35 AM 35.6 °F 27.1 °F 26.6 °F 70% 29.55 in 10.0 mi SSE 12.7 mph - N/A   Clear
1:55 AM 35.6 °F 28.0 °F 28.4 °F 75% 29.55 in 10.0 mi South 10.4 mph - N/A   Clear
2:14 AM 35.6 °F 28.0 °F 28.4 °F 75% 29.55 in 10.0 mi South 10.4 mph - N/A   Clear
2:35 AM 35.6 °F 27.1 °F 28.4 °F 75% 29.55 in 10.0 mi South 12.7 mph - N/A   Clear
2:55 AM 35.6 °F - 28.4 °F 75% 29.55 in 10.0 mi Calm Calm - N/A   Clear
3:14 AM 35.6 °F - 28.4 °F 75% 29.54 in 10.0 mi Calm Calm - N/A   Clear
3:35 AM 35.6 °F - 28.4 °F 75% 29.54 in 10.0 mi Calm Calm - N/A   Clear
3:55 AM 37.4 °F 29.3 °F 28.4 °F 70% 29.53 in 10.0 mi WNW 12.7 mph - N/A   Clear
4:14 AM 37.4 °F 30.3 °F 28.4 °F 70% 29.53 in 10.0 mi West 10.4 mph - N/A   Clear
4:35 AM 37.4 °F 34.9 °F 28.4 °F 70% 29.53 in 10.0 mi West 3.5 mph - N/A   Clear
4:55 AM 37.4 °F 34.9 °F 28.4 °F 70% 29.55 in 10.0 mi West 3.5 mph - N/A   Clear
5:14 AM 37.4 °F 30.3 °F 28.4 °F 70% 29.55 in 10.0 mi West 10.4 mph - N/A   Clear
5:35 AM 37.4 °F 30.8 °F 28.4 °F 70% 29.55 in 10.0 mi West 9.2 mph - N/A   Clear
5:55 AM 37.4 °F - 28.4 °F 70% 29.55 in 10.0 mi Calm Calm - N/A   Clear
6:14 AM 35.6 °F - 28.4 °F 75% 29.55 in 10.0 mi Calm Calm - N/A   Clear
6:35 AM 35.6 °F - 28.4 °F 75% 29.55 in 10.0 mi Calm Calm - N/A   Clear
6:55 AM 35.6 °F - 28.4 °F 75% 29.56 in 10.0 mi Calm Calm - N/A   Clear
7:15 AM 35.6 °F 28.6 °F 28.4 °F 75% 29.56 in 10.0 mi West 9.2 mph - N/A   Scattered Clouds
7:35 AM 37.4 °F 29.3 °F 30.2 °F 75% 29.57 in 10.0 mi West 12.7 mph - N/A   Mostly Cloudy
7:54 AM 37.4 °F 28.9 °F 30.2 °F 75% 29.58 in 10.0 mi WNW 13.8 mph 20.7 mph N/A   Mostly Cloudy
8:15 AM 37.4 °F 28.5 °F 30.2 °F 75% 29.58 in 7.0 mi WNW 15.0 mph 21.9 mph N/A   Mostly Cloudy
8:35 AM 37.4 °F 28.2 °F 30.2 °F 75% 29.59 in 7.0 mi WNW 16.1 mph 23.0 mph N/A   Mostly Cloudy
8:55 AM 37.4 °F 24.8 °F 28.4 °F 70% 29.60 in 10.0 mi WNW 31.1 mph 39.1 mph N/A   Overcast
9:15 AM 32.0 °F 18.6 °F 24.8 °F 75% 29.62 in 10.0 mi WNW 25.3 mph 38.0 mph N/A   Overcast
9:35 AM 32.0 °F 18.6 °F 24.8 °F 75% 29.63 in 10.0 mi WNW 25.3 mph 35.7 mph N/A   Overcast
9:55 AM 30.2 °F 16.2 °F 21.2 °F 69% 29.63 in 10.0 mi WNW 25.3 mph 34.5 mph N/A   Overcast
10:15 AM 28.4 °F 13.5 °F 21.2 °F 74% 29.66 in 10.0 mi WNW 26.5 mph 34.5 mph N/A   Overcast
10:35 AM 28.4 °F 12.5 °F 21.2 °F 74% 29.65 in 10.0 mi WNW 31.1 mph 35.7 mph N/A   Overcast
10:54 AM 28.4 °F 14.1 °F 19.4 °F 69% 29.67 in 10.0 mi WNW 24.2 mph 34.5 mph N/A   Overcast
11:15 AM 28.4 °F 14.1 °F 19.4 °F 69% 29.68 in 10.0 mi WNW 24.2 mph 34.5 mph N/A   Overcast
11:35 AM 28.4 °F 13.5 °F 19.4 °F 69% 29.68 in 10.0 mi WNW 26.5 mph 33.4 mph N/A   Overcast
11:54 AM 26.6 °F 11.7 °F 19.4 °F 74% 29.68 in 10.0 mi WNW 24.2 mph 35.7 mph N/A   Overcast
12:15 PM 26.6 °F 11.1 °F 17.6 °F 69% 29.69 in 10.0 mi WNW 26.5 mph 35.7 mph N/A   Overcast
12:35 PM 24.8 °F 9.3 °F 17.6 °F 74% 29.69 in 10.0 mi WNW 24.2 mph 40.3 mph N/A   Overcast
12:54 PM 24.8 °F 7.3 °F 14.0 °F 64% 29.70 in 10.0 mi WNW 32.2 mph 39.1 mph N/A   Overcast
1:15 PM 23.0 °F 6.3 °F 12.2 °F 63% 29.71 in 10.0 mi WNW 26.5 mph 36.8 mph N/A   Overcast
1:35 PM 21.2 °F 4.5 °F 12.2 °F 68% 29.72 in 10.0 mi WNW 24.2 mph 35.7 mph N/A   Overcast
1:54 PM 21.2 °F 2.7 °F 10.4 °F 63% 29.73 in 10.0 mi WNW 31.1 mph 38.0 mph N/A   Overcast
2:15 PM 21.2 °F 2.4 °F 10.4 °F 63% 29.73 in 5.0 mi WNW 32.2 mph 39.1 mph N/A Snow Light Snow
2:35 PM 21.2 °F 3.9 °F 10.4 °F 63% 29.74 in 7.0 mi WNW 26.5 mph 40.3 mph N/A Snow Light Snow
2:55 PM 19.4 °F -0.3 °F 10.4 °F 68% 29.75 in 7.0 mi WNW 33.4 mph 40.3 mph N/A Snow Light Snow
3:15 PM 19.4 °F -0.3 °F 8.6 °F 63% 29.76 in 10.0 mi WNW 33.4 mph 39.1 mph N/A Snow Light Snow
3:35 PM 19.4 °F 0.5 °F 6.8 °F 58% 29.77 in 10.0 mi WNW 29.9 mph 42.6 mph N/A Snow Light Snow
3:55 PM 17.6 °F -2.5 °F 6.8 °F 63% 29.78 in 7.0 mi WNW 32.2 mph 41.4 mph N/A Snow Light Snow
4:15 PM 17.6 °F -1.9 °F 5.0 °F 58% 29.79 in 10.0 mi WNW 29.9 mph 40.3 mph N/A   Overcast
4:35 PM 17.6 °F -3.1 °F 5.0 °F 58% 29.79 in 10.0 mi WNW 34.5 mph 46.0 mph N/A   Overcast
5:15 PM 15.8 °F -4.1 °F 5.0 °F 62% 29.80 in 10.0 mi WNW 28.8 mph 42.6 mph N/A   Overcast
5:35 PM 15.8 °F -3.1 °F 6.8 °F 68% 29.81 in 5.0 mi WNW 25.3 mph 38.0 mph N/A Snow Light Snow
5:55 PM 15.8 °F -4.4 °F 3.2 °F 58% 29.81 in 10.0 mi WNW 29.9 mph 40.3 mph N/A   Mostly Cloudy
6:15 PM 14.0 °F -5.5 °F 3.2 °F 62% 29.82 in 10.0 mi WNW 25.3 mph 42.6 mph N/A   Scattered Clouds
6:35 PM 14.0 °F -6.8 °F 5.0 °F 67% 29.83 in 7.0 mi WNW 29.9 mph 35.7 mph N/A   Mostly Cloudy
6:55 PM 12.2 °F -9.3 °F 3.2 °F 67% 29.83 in 5.0 mi WNW 29.9 mph 39.1 mph N/A Snow Light Snow
7:14 PM 12.2 °F -9.9 °F 3.2 °F 67% 29.84 in 7.0 mi WNW 32.2 mph 47.2 mph N/A Snow Light Snow
7:35 PM 12.2 °F -10.2 °F 1.4 °F 62% 29.84 in 7.0 mi WNW 33.4 mph 42.6 mph N/A Snow Light Snow
7:55 PM 10.4 °F -12.7 °F -0.4 °F 62% 29.85 in 4.0 mi NW 33.4 mph 40.3 mph N/A Snow Light Snow
8:14 PM 10.4 °F -10.3 °F 1.4 °F 67% 29.86 in 3.0 mi WNW 25.3 mph 33.4 mph N/A Snow Light Snow
8:35 PM 8.6 °F -13.8 °F 1.4 °F 73% 29.86 in 2.0 mi WNW 28.8 mph 41.4 mph N/A Snow Light Snow
8:55 PM 8.6 °F -14.1 °F -0.4 °F 67% 29.86 in 3.0 mi WNW 29.9 mph 41.4 mph N/A Snow Light Snow
9:14 PM 8.6 °F -14.8 °F 1.4 °F 73% 29.88 in 1.8 mi WNW 32.2 mph 38.0 mph N/A Snow Light Snow
9:35 PM 8.6 °F -13.4 °F -2.2 °F 62% 29.88 in 3.0 mi WNW 27.6 mph 43.7 mph N/A Snow Light Snow
10:15 PM 8.6 °F -14.1 °F -0.4 °F 67% 29.89 in 3.0 mi WNW 29.9 mph 39.1 mph N/A Snow Light Snow
10:34 PM 6.8 °F -15.1 °F -0.4 °F 72% 29.90 in 1.8 mi NW 25.3 mph 31.1 mph N/A Snow Light Snow
10:55 PM 6.8 °F -16.6 °F -2.2 °F 67% 29.90 in 1.8 mi WNW 29.9 mph 42.6 mph N/A Snow Light Snow
11:15 PM 6.8 °F -15.5 °F -2.2 °F 67% 29.91 in 2.5 mi WNW 26.5 mph 36.8 mph N/A Snow Light Snow
11:34 PM 5.0 °F -19.4 °F -4.0 °F 66% 29.91 in 2.5 mi WNW 31.1 mph 42.6 mph N/A   Haze
11:55 PM 5.0 °F -19.4 °F -4.0 °F 66% 29.92 in 4.0 mi WNW 31.1 mph 38.0 mph N/A   Haze